Regional Weather Roundup
Issued by NWS Northern Indiana

Home | Current Version | Previous Version | Graphics & Text | Print | Product List | Glossary On
Versions: 1 2 3 4 5 6 7 8 9 10 11 12 13 14 15 16 17 18 19 20 21 22 23 24 25 26 27 28 29 30 31 32 33 34 35 36 37 38 39 40 41 42 43 44 45 46 47 48 49 50
000
ASUS43 KIWX 232300
RWRIWX

KIWX WEATHER ROUNDUP
NATIONAL WEATHER SERVICE NORTHERN INDIANA
700 PM EDT TUE MAY 23 2017

NOTE: "FAIR" INDICATES FEW OR NO CLOUDS BELOW 12,000 FEET WITH NO
SIGNIFICANT WEATHER AND/OR OBSTRUCTIONS TO VISIBILITY.

* THESE STATIONS ARE NOT UNDER NWS QUALITY CONTROL. THEY ALSO MAY NOT
  REPORT WEATHER SUCH AS PRECIPITATION OR FOG.

INZ001>027-240000-
NORTHERN INDIANA

CITY           SKY/WX    TMP DP  RH WIND       PRES   REMARKS
GARY*          CLOUDY    59  54  82 N5        29.72F
MICHIGAN CITY* CLOUDY    63  55  77 CALM      29.71S
SOUTH BEND     CLOUDY    61  54  77 NE9       29.70F
GOSHEN         CLOUDY    63  54  72 NE9       29.71F
MONTICELLO*    CLOUDY    68  46  44 NE3       29.67F
ANGOLA*        SUNNY     63  54  72 N8        29.71F
FORT WAYNE     PTSUNNY   73  47  39 E9        29.68F
PERU/GRISSOM   PTSUNNY   69  51  52 NE6       29.65F

$$
INZ028>050-240000-
CENTRAL INDIANA

CITY           SKY/WX    TMP DP  RH WIND       PRES   REMARKS
LAFAYETTE      CLOUDY    69  48  47 VRB3      29.66F
KOKOMO*        MOSUNNY   72  49  44 NE7       29.68F
MUNCIE*        MOSUNNY   73  41  31 SE8       29.67F
INDIANAPOLIS   PTSUNNY   70  46  42 S6        29.66F

$$
MIZ043>046-050>051-056>058-064>065-071>073-077>080-240000-
SOUTHWEST LOWER MICHIGAN

CITY           SKY/WX    TMP DP  RH WIND       PRES   REMARKS
BATTLE CREEK   LGT RAIN  60  57  89 N7        29.75F
BENTON HARBOR  CLOUDY    62  55  77 E9        29.71F
COLDWATER*     CLOUDY    61  58  91 N6        29.73F
HILLSDALE*     CLOUDY    61  54  77 N9        29.72F
HOLLAND        CLOUDY    61  54  77 E6        29.74F
GRAND RAPIDS   LGT RAIN  60  58  92 E5        29.75F
KALAMAZOO      LGT RAIN  60  54  80 N5        29.75F
STURGIS*       CLOUDY    60  56  86 NE9       29.72F
THREE RIVERS*  CLOUDY    58  55  87 CALM      29.73F

$$
OHZ001>008-015>018-024>025-240000-
NORTHWEST OHIO

CITY           SKY/WX    TMP DP  RH WIND       PRES   REMARKS
DEFIANCE       PTSUNNY   71  47  42 N12       29.69F
FINDLAY        PTSUNNY   74  45  35 E7        29.68F
TOLEDO EXPRESS CLOUDY    69  49  48 E12       29.70F
TOLEDO METCALF CLOUDY    68  49  50 E9        29.71F
LIMA           MOSUNNY   70  50  49 NE6       29.69F

$$
AND FOR LAKE MICHIGAN COASTAL AND OPEN LAKE BUOY OBSERVATIONS

STATION/POSITION TEMP    WIND        PRES    VSBY  WAVE
                 AIR SEA DIR/SP/G                  HT/PER
                 (F)     (DEG/KT/KT) (MB)    (MI)  (FT/S)
CALUMET HARBOR    56     270/  3/  5 1006.4F
MICHIGAN CITY     62      90/  4/  5   N/A
BURNS HARBOR      56      50/  4/  7 1006.8S
SOUTH LAKE BUOY   48 45  110/  8/  8 1007.2          0
4 MI NW BRIDGMAN  60 56  100/  8/ 10 1006.0F         1
MICHIGAN CITY     54 54   20/  6/  8   N/A           1

$$
&&




USA.gov is the U.S. government's official web portal to all federal, state and local government web resources and services.